Home   Weather   Olten   Past weeks

Flag for Switzerland Past Weather in Olten, Solothurn, Switzerland — Yesterday and Last 2 Weeks

Now
33 °F

Chilly.


Feels Like: 33 °F
Forecast: 32 / 62 °F
Wind: 1 mph from Southwest

Location: Wynau

Current Time: Apr 29, 2017 at 3:44:09 am

Latest Report: Apr 29, 2017 at 2:00 am


Visibility: N/A

Pressure: 30.17 "Hg

Humidity: 96%

Dew Point: 32 °F

Location of OltenLocation

Past Weather in Olten — Graph

°F

Olten Temperature Yesterday

Maximum temperature yesterday: 48 °F (at 2:00 pm)
Minimum temperature yesterday: 36 °F (at 3:00 am)
Average temperature yesterday: 41 °F

High & Low Weather Summary for the Past Weeks

 TemperatureHumidityPressure
High68 °F (Apr 24, 5:00 pm)100% (Apr 29, 1:00 am)30.57 "Hg (Apr 29, 1:00 am)
Low25 °F (Apr 21, 6:00 am)23% (Apr 21, 7:00 pm)29.74 "Hg (Apr 25, 11:00 pm)
Average44 °F72%30.14 "Hg
* Reported Apr 14 2:00 am — Apr 29 2:00 am, Olten, Weather by CustomWeather, © 2017

Note: Actual official high and low records may vary slightly from our data, if they occured in-between our weather recording intervals... More about our weather records

Advertising

Olten Weather History for the Previous 24 Hours

Scroll right to see more
 ConditionsComfort  
Time TempWeatherWind HumidityBarometerVisibility
2:00 am
Sat, Apr 29
33 °FChilly.1 mph96%30.17 "HgN/A
1:00 am34 °FChilly.2 mph100%30.16 "HgN/A
12:00 am36 °FChilly.1 mph97%30.15 "HgN/A
11:00 pm
Fri, Apr 28
38 °FChilly.1 mph93%30.14 "HgN/A
10:00 pm39 °FChilly.1 mph91%30.13 "HgN/A
9:00 pm40 °FChilly.2 mph88%30.11 "HgN/A
8:00 pm41 °FQuite cool.2 mph87%30.09 "HgN/A
7:00 pm41 °FQuite cool.6 mph81%30.07 "HgN/A
6:00 pm46 °FCool.6 mph66%30.04 "HgN/A
5:00 pm47 °FCool.6 mph64%30.03 "HgN/A
4:00 pm40 °FQuite cool.3 mph78%30.07 "HgN/A
3:00 pm47 °FCool.3 mph52%30.01 "HgN/A
2:00 pm48 °FCool.3 mph53%29.99 "HgN/A
1:00 pm46 °FCool.3 mph57%29.99 "HgN/A
12:00 pm45 °FQuite cool.5 mph65%29.99 "HgN/A
11:00 am43 °FQuite cool.5 mph75%29.98 "HgN/A
10:00 am41 °FQuite cool.2 mph80%29.97 "HgN/A
9:00 am40 °FChilly.5 mph81%29.96 "HgN/A
8:00 am38 °FChilly.1 mph88%29.95 "HgN/A
7:00 am36 °FChilly.1 mph97%29.94 "HgN/A
6:00 am36 °FChilly.1 mph98%29.93 "HgN/A
5:00 am36 °FChilly.1 mph97%29.93 "HgN/A
4:00 am37 °FChilly.3 mph91%29.92 "HgN/A
3:00 am36 °FChilly.2 mph97%29.93 "HgN/A
Weather by CustomWeather, © 2017

See weather overviewHow to use our weather pages